contact:dominique.lefevre@mio.osupytheas.fr, maurice.libes@osupytheas.fr, didier.mallarino@osupytheas.fr
Project:EMSO http://www.emso-fr.org/EMSO-France
Depth: 2436.0 m
Title:EMSO Ligure Ouest : Data MII capteur CSTAR
DateTime,Latitude,Longitude,Instrument_Serial,Reference_Counts,Signal_Counts,Corrected_Signal_raw_counts,Calculated_Beam_c_inverse_meters,Internal_thermistor_counts
DateTime,Latitude,Longitude,Instrument_Serial,Reference_Counts,Signal_Counts,Corrected_Signal_raw_counts,Calculated_Beam_c_inverse_meters,Internal_thermistor_counts
2023-07-03T00:02:41,42.805,6.029,CST-1368DR,4270,4751,11808,01.118,552
2023-07-03T00:05:42,42.805,6.029,CST-1368DR,4270,4752,11811,01.117,552
2023-07-03T00:08:44,42.805,6.029,CST-1368DR,4270,4752,11812,01.117,552
2023-07-03T00:11:46,42.805,6.029,CST-1368DR,4270,4752,11812,01.117,552
2023-07-03T00:14:47,42.805,6.029,CST-1368DR,4270,4752,11811,01.117,552
2023-07-03T00:17:49,42.805,6.029,CST-1368DR,4270,4752,11812,01.117,552
2023-07-03T00:20:50,42.805,6.029,CST-1368DR,4270,4752,11812,01.117,552
2023-07-03T00:23:52,42.805,6.029,CST-1368DR,4270,4753,11814,01.116,552
2023-07-03T00:26:54,42.805,6.029,CST-1368DR,4270,4753,11813,01.116,552
2023-07-03T00:29:55,42.805,6.029,CST-1368DR,4270,4751,11809,01.118,552
2023-07-03T00:32:57,42.805,6.029,CST-1368DR,4270,4754,11816,01.115,552
2023-07-03T00:35:58,42.805,6.029,CST-1368DR,4270,4754,11816,01.115,552
2023-07-03T00:39:00,42.805,6.029,CST-1368DR,4270,4752,11812,01.117,552
2023-07-03T00:42:01,42.805,6.029,CST-1368DR,4270,4753,11813,01.116,552
2023-07-03T00:45:03,42.805,6.029,CST-1368DR,4270,4753,11814,01.116,552
2023-07-03T00:48:05,42.805,6.029,CST-1368DR,4270,4753,11814,01.116,552
2023-07-03T00:51:06,42.805,6.029,CST-1368DR,4270,4752,11812,01.117,552
2023-07-03T00:54:08,42.805,6.029,CST-1368DR,4270,4753,11814,01.116,552
2023-07-03T00:57:09,42.805,6.029,CST-1368DR,4270,4753,11813,01.116,552
2023-07-03T01:00:11,42.805,6.029,CST-1368DR,4270,4752,11812,01.117,552
2023-07-03T01:03:12,42.805,6.029,CST-1368DR,4270,4751,11809,01.118,552
2023-07-03T01:06:14,42.805,6.029,CST-1368DR,4270,4752,11812,01.117,552
2023-07-03T01:09:16,42.805,6.029,CST-1368DR,4270,4753,11814,01.116,552
2023-07-03T01:12:17,42.805,6.029,CST-1368DR,4270,4753,11813,01.116,552
2023-07-03T01:15:19,42.805,6.029,CST-1368DR,4270,4752,11812,01.117,552
2023-07-03T01:18:20,42.805,6.029,CST-1368DR,4270,4753,11814,01.116,552
2023-07-03T01:21:22,42.805,6.029,CST-1368DR,4270,4753,11815,01.116,552
2023-07-03T01:24:23,42.805,6.029,CST-1368DR,4270,4753,11814,01.116,552
2023-07-03T01:27:25,42.805,6.029,CST-1368DR,4270,4752,11811,01.117,552
2023-07-03T01:30:27,42.805,6.029,CST-1368DR,4270,4752,11812,01.117,552
2023-07-03T01:33:28,42.805,6.029,CST-1368DR,4270,4752,11811,01.117,552
2023-07-03T01:36:30,42.805,6.029,CST-1368DR,4270,4753,11814,01.116,552
2023-07-03T01:39:31,42.805,6.029,CST-1368DR,4270,4752,11812,01.117,552
2023-07-03T01:42:33,42.805,6.029,CST-1368DR,4270,4750,11807,01.118,552
2023-07-03T01:45:35,42.805,6.029,CST-1368DR,4270,4753,11815,01.116,552
2023-07-03T01:48:36,42.805,6.029,CST-1368DR,4270,4753,11814,01.116,552
2023-07-03T01:51:38,42.805,6.029,CST-1368DR,4270,4752,11812,01.117,552
2023-07-03T01:54:39,42.805,6.029,CST-1368DR,4270,4753,11813,01.116,552
2023-07-03T01:57:41,42.805,6.029,CST-1368DR,4270,4752,11812,01.117,552
2023-07-03T02:00:42,42.805,6.029,CST-1368DR,4270,4737,11774,01.130,552
2023-07-03T02:03:44,42.805,6.029,CST-1368DR,4270,4753,11813,01.116,552
2023-07-03T02:06:46,42.805,6.029,CST-1368DR,4270,4753,11814,01.116,552
2023-07-03T02:09:47,42.805,6.029,CST-1368DR,4270,4753,11815,01.116,552
2023-07-03T02:12:49,42.805,6.029,CST-1368DR,4270,4753,11814,01.116,552
2023-07-03T02:15:50,42.805,6.029,CST-1368DR,4270,4754,11816,01.115,552
2023-07-03T02:18:52,42.805,6.029,CST-1368DR,4270,4753,11815,01.116,552
2023-07-03T02:21:53,42.805,6.029,CST-1368DR,4270,4753,11815,01.116,552
2023-07-03T02:24:55,42.805,6.029,CST-1368DR,4270,4753,11813,01.116,552
2023-07-03T02:27:57,42.805,6.029,CST-1368DR,4270,4753,11815,01.116,552
2023-07-03T02:30:58,42.805,6.029,CST-1368DR,4270,4753,11814,01.116,552
2023-07-03T02:34:00,42.805,6.029,CST-1368DR,4270,4752,11812,01.117,552
2023-07-03T02:37:01,42.805,6.029,CST-1368DR,4270,4752,11811,01.117,552
2023-07-03T02:40:03,42.805,6.029,CST-1368DR,4270,4753,11814,01.116,552
2023-07-03T02:43:05,42.805,6.029,CST-1368DR,4270,4752,11812,01.117,552
2023-07-03T02:46:06,42.805,6.029,CST-1368DR,4270,4752,11811,01.117,552
2023-07-03T02:49:08,42.805,6.029,CST-1368DR,4270,4752,11812,01.117,552
2023-07-03T02:52:09,42.805,6.029,CST-1368DR,4270,4752,11812,01.117,552
2023-07-03T02:55:11,42.805,6.029,CST-1368DR,4270,4754,11816,01.115,552
2023-07-03T02:58:12,42.805,6.029,CST-1368DR,4270,4753,11814,01.116,552
2023-07-03T03:01:14,42.805,6.029,CST-1368DR,4270,4753,11814,01.116,552
2023-07-03T03:04:16,42.805,6.029,CST-1368DR,4270,4752,11811,01.117,552
2023-07-03T03:07:17,42.805,6.029,CST-1368DR,4270,4753,11814,01.116,552
2023-07-03T03:10:19,42.805,6.029,CST-1368DR,4270,4753,11813,01.116,552
2023-07-03T03:13:20,42.805,6.029,CST-1368DR,4270,4753,11814,01.116,552
2023-07-03T03:16:22,42.805,6.029,CST-1368DR,4270,4753,11814,01.116,552
2023-07-03T03:19:23,42.805,6.029,CST-1368DR,4270,4752,11811,01.117,552
2023-07-03T03:22:25,42.805,6.029,CST-1368DR,4270,4754,11817,01.115,552
2023-07-03T03:25:27,42.805,6.029,CST-1368DR,4270,4753,11814,01.116,552
2023-07-03T03:28:28,42.805,6.029,CST-1368DR,4270,4752,11811,01.117,552
2023-07-03T03:31:30,42.805,6.029,CST-1368DR,4270,4753,11814,01.116,552
2023-07-03T03:34:31,42.805,6.029,CST-1368DR,4270,4753,11814,01.116,552
2023-07-03T03:37:33,42.805,6.029,CST-1368DR,4270,4754,11816,01.115,552
2023-07-03T03:40:35,42.805,6.029,CST-1368DR,4270,4753,11814,01.116,552
2023-07-03T03:43:36,42.805,6.029,CST-1368DR,4270,4753,11814,01.116,552
2023-07-03T03:46:38,42.805,6.029,CST-1368DR,4270,4753,11814,01.116,552
2023-07-03T03:49:39,42.805,6.029,CST-1368DR,4270,4753,11815,01.116,552
2023-07-03T03:52:41,42.805,6.029,CST-1368DR,4270,4753,11815,01.116,552
2023-07-03T03:55:42,42.805,6.029,CST-1368DR,4270,4753,11814,01.116,552
2023-07-03T03:58:44,42.805,6.029,CST-1368DR,4270,4752,11812,01.117,552
2023-07-03T04:01:46,42.805,6.029,CST-1368DR,4270,4752,11812,01.117,552
2023-07-03T04:04:47,42.805,6.029,CST-1368DR,4270,4753,11815,01.116,552
2023-07-03T04:07:49,42.805,6.029,CST-1368DR,4270,4754,11816,01.115,552
2023-07-03T04:10:50,42.805,6.029,CST-1368DR,4270,4752,11812,01.117,552
2023-07-03T04:13:52,42.805,6.029,CST-1368DR,4270,4753,11813,01.116,552
2023-07-03T04:16:53,42.805,6.029,CST-1368DR,4270,4753,11814,01.116,552
2023-07-03T04:19:55,42.805,6.029,CST-1368DR,4270,4753,11813,01.116,552
2023-07-03T04:22:57,42.805,6.029,CST-1368DR,4270,4753,11814,01.116,552
2023-07-03T04:25:58,42.805,6.029,CST-1368DR,4270,4751,11808,01.118,552
2023-07-03T04:29:00,42.805,6.029,CST-1368DR,4270,4753,11814,01.116,552
2023-07-03T04:32:03,42.805,6.029,CST-1368DR,4270,4754,11816,01.115,552
2023-07-03T04:35:05,42.805,6.029,CST-1368DR,4270,4753,11813,01.116,552
2023-07-03T04:38:07,42.805,6.029,CST-1368DR,4270,4751,11808,01.118,552
2023-07-03T04:41:08,42.805,6.029,CST-1368DR,4270,4752,11812,01.117,552
2023-07-03T04:44:10,42.805,6.029,CST-1368DR,4270,4752,11812,01.117,552
2023-07-03T04:47:11,42.805,6.029,CST-1368DR,4270,4751,11809,01.118,552
2023-07-03T04:50:13,42.805,6.029,CST-1368DR,4270,4752,11812,01.117,552
2023-07-03T04:53:14,42.805,6.029,CST-1368DR,4270,4752,11812,01.117,552
2023-07-03T04:56:16,42.805,6.029,CST-1368DR,4270,4752,11812,01.117,552
2023-07-03T04:59:18,42.805,6.029,CST-1368DR,4270,4752,11811,01.117,552
2023-07-03T05:02:19,42.805,6.029,CST-1368DR,4270,4750,11807,01.118,552
2023-07-03T05:05:21,42.805,6.029,CST-1368DR,4270,4752,11812,01.117,552
2023-07-03T05:08:22,42.805,6.029,CST-1368DR,4270,4753,11814,01.116,552
2023-07-03T05:11:24,42.805,6.029,CST-1368DR,4270,4752,11811,01.117,552
2023-07-03T05:14:25,42.805,6.029,CST-1368DR,4270,4753,11814,01.116,552
2023-07-03T05:17:27,42.805,6.029,CST-1368DR,4270,4753,11813,01.116,552
2023-07-03T05:20:29,42.805,6.029,CST-1368DR,4270,4752,11812,01.117,552
2023-07-03T05:23:30,42.805,6.029,CST-1368DR,4270,4750,11807,01.118,552
2023-07-03T05:26:32,42.805,6.029,CST-1368DR,4270,4752,11812,01.117,552
2023-07-03T05:29:33,42.805,6.029,CST-1368DR,4270,4750,11806,01.119,552
2023-07-03T05:32:35,42.805,6.029,CST-1368DR,4270,4753,11814,01.116,552
2023-07-03T05:35:37,42.805,6.029,CST-1368DR,4270,4752,11811,01.117,552
2023-07-03T05:38:38,42.805,6.029,CST-1368DR,4270,4751,11809,01.118,552
2023-07-03T05:41:40,42.805,6.029,CST-1368DR,4270,4753,11813,01.116,552
2023-07-03T05:44:41,42.805,6.029,CST-1368DR,4270,4752,11811,01.117,552
2023-07-03T05:47:43,42.805,6.029,CST-1368DR,4270,4752,11812,01.117,552
2023-07-03T05:50:44,42.805,6.029,CST-1368DR,4270,4752,11811,01.117,552
2023-07-03T05:53:46,42.805,6.029,CST-1368DR,4270,4753,11813,01.116,552
2023-07-03T05:56:48,42.805,6.029,CST-1368DR,4270,4753,11813,01.116,552
2023-07-03T05:59:49,42.805,6.029,CST-1368DR,4270,4753,11814,01.116,552
2023-07-03T06:02:51,42.805,6.029,CST-1368DR,4270,4754,11816,01.115,552
2023-07-03T06:05:52,42.805,6.029,CST-1368DR,4270,4752,11812,01.117,552
2023-07-03T06:08:54,42.805,6.029,CST-1368DR,4270,4752,11811,01.117,552
2023-07-03T06:11:56,42.805,6.029,CST-1368DR,4270,4753,11813,01.116,552
2023-07-03T06:14:57,42.805,6.029,CST-1368DR,4270,4752,11812,01.117,552
2023-07-03T06:17:59,42.805,6.029,CST-1368DR,4270,4752,11811,01.117,552
2023-07-03T06:21:00,42.805,6.029,CST-1368DR,4270,4752,11811,01.117,552
2023-07-03T06:24:02,42.805,6.029,CST-1368DR,4270,4753,11815,01.116,552
2023-07-03T06:27:03,42.805,6.029,CST-1368DR,4270,4745,11794,01.123,552
2023-07-03T06:30:05,42.805,6.029,CST-1368DR,4270,4744,11792,01.123,552
2023-07-03T06:33:07,42.805,6.029,CST-1368DR,4270,4744,11791,01.124,552
2023-07-03T06:36:08,42.805,6.029,CST-1368DR,4270,4746,11796,01.122,552
2023-07-03T06:39:10,42.805,6.029,CST-1368DR,4270,4744,11791,01.124,552
2023-07-03T06:42:11,42.805,6.029,CST-1368DR,4270,4744,11791,01.124,552
2023-07-03T06:45:13,42.805,6.029,CST-1368DR,4270,4743,11789,01.125,552
2023-07-03T06:48:14,42.805,6.029,CST-1368DR,4270,4744,11791,01.124,552
2023-07-03T06:51:16,42.805,6.029,CST-1368DR,4270,4743,11789,01.125,552
2023-07-03T06:54:18,42.805,6.029,CST-1368DR,4270,4745,11795,01.122,552
2023-07-03T06:57:19,42.805,6.029,CST-1368DR,4270,4744,11792,01.123,552
2023-07-03T07:00:21,42.805,6.029,CST-1368DR,4270,4744,11793,01.123,552
2023-07-03T07:03:22,42.805,6.029,CST-1368DR,4270,4744,11793,01.123,552
2023-07-03T07:06:24,42.805,6.029,CST-1368DR,4270,4745,11795,01.122,552
2023-07-03T07:09:26,42.805,6.029,CST-1368DR,4270,4744,11792,01.123,552
2023-07-03T07:12:27,42.805,6.029,CST-1368DR,4270,4744,11793,01.123,552
2023-07-03T07:15:29,42.805,6.029,CST-1368DR,4270,4744,11791,01.124,552
2023-07-03T07:18:30,42.805,6.029,CST-1368DR,4270,4744,11791,01.124,552
2023-07-03T07:21:32,42.805,6.029,CST-1368DR,4270,4744,11792,01.123,552
2023-07-03T07:24:33,42.805,6.029,CST-1368DR,4270,4745,11794,01.123,552
2023-07-03T07:27:35,42.805,6.029,CST-1368DR,4270,4745,11794,01.123,552
2023-07-03T07:30:37,42.805,6.029,CST-1368DR,4270,4744,11792,01.123,552
2023-07-03T07:33:38,42.805,6.029,CST-1368DR,4270,4743,11789,01.125,552
2023-07-03T07:36:40,42.805,6.029,CST-1368DR,4270,4744,11793,01.123,552
2023-07-03T07:39:41,42.805,6.029,CST-1368DR,4270,4745,11794,01.123,552
2023-07-03T07:42:43,42.805,6.029,CST-1368DR,4270,4744,11791,01.124,552
2023-07-03T07:45:44,42.805,6.029,CST-1368DR,4270,4743,11789,01.125,552
2023-07-03T07:48:46,42.805,6.029,CST-1368DR,4270,4744,11791,01.124,552
2023-07-03T07:51:48,42.805,6.029,CST-1368DR,4270,4744,11793,01.123,552
2023-07-03T07:54:49,42.805,6.029,CST-1368DR,4270,4745,11794,01.123,552
2023-07-03T07:57:51,42.805,6.029,CST-1368DR,4270,4744,11792,01.123,552
2023-07-03T08:00:52,42.805,6.029,CST-1368DR,4270,4744,11792,01.123,552
2023-07-03T08:03:54,42.805,6.029,CST-1368DR,4270,4745,11794,01.123,552
2023-07-03T08:06:56,42.805,6.029,CST-1368DR,4270,4743,11789,01.125,552
2023-07-03T08:09:57,42.805,6.029,CST-1368DR,4270,4745,11794,01.123,552
2023-07-03T08:12:59,42.805,6.029,CST-1368DR,4270,4745,11794,01.123,552
2023-07-03T08:16:00,42.805,6.029,CST-1368DR,4270,4741,11784,01.126,552
2023-07-03T08:19:02,42.805,6.029,CST-1368DR,4270,4743,11789,01.125,552
2023-07-03T08:22:03,42.805,6.029,CST-1368DR,4270,4743,11790,01.124,552
2023-07-03T08:25:05,42.805,6.029,CST-1368DR,4270,4745,11794,01.123,552
2023-07-03T08:28:07,42.805,6.029,CST-1368DR,4270,4746,11796,01.122,552
2023-07-03T08:31:10,42.805,6.029,CST-1368DR,4270,4744,11791,01.124,552
2023-07-03T08:34:11,42.805,6.029,CST-1368DR,4270,4746,11798,01.121,552
2023-07-03T08:37:13,42.805,6.029,CST-1368DR,4270,4746,11798,01.121,552
2023-07-03T08:40:15,42.805,6.029,CST-1368DR,4270,4743,11790,01.124,552
2023-07-03T08:43:16,42.805,6.029,CST-1368DR,4270,4744,11792,01.123,552
2023-07-03T08:46:18,42.805,6.029,CST-1368DR,4270,4744,11791,01.124,552
2023-07-03T08:49:19,42.805,6.029,CST-1368DR,4270,4743,11788,01.125,552
2023-07-03T08:52:21,42.805,6.029,CST-1368DR,4270,4744,11791,01.124,552
2023-07-03T08:55:23,42.805,6.029,CST-1368DR,4270,4745,11794,01.123,552
2023-07-03T08:58:24,42.805,6.029,CST-1368DR,4270,4743,11788,01.125,552
2023-07-03T09:01:26,42.805,6.029,CST-1368DR,4270,4744,11793,01.123,552
2023-07-03T09:04:27,42.805,6.029,CST-1368DR,4270,4742,11787,01.125,552
2023-07-03T09:07:29,42.805,6.029,CST-1368DR,4270,4742,11787,01.125,552
2023-07-03T09:10:30,42.805,6.029,CST-1368DR,4270,4744,11791,01.124,552
2023-07-03T09:13:32,42.805,6.029,CST-1368DR,4270,4744,11791,01.124,552
2023-07-03T09:16:34,42.805,6.029,CST-1368DR,4270,4744,11792,01.123,552
2023-07-03T09:19:35,42.805,6.029,CST-1368DR,4270,4742,11787,01.125,552
2023-07-03T09:22:37,42.805,6.029,CST-1368DR,4270,4742,11788,01.125,552
2023-07-03T09:25:38,42.805,6.029,CST-1368DR,4270,4743,11789,01.125,552
2023-07-03T09:28:40,42.805,6.029,CST-1368DR,4270,4744,11791,01.124,552
2023-07-03T09:31:41,42.805,6.029,CST-1368DR,4270,4745,11794,01.123,552
2023-07-03T09:34:43,42.805,6.029,CST-1368DR,4270,4742,11786,01.126,552
2023-07-03T09:37:45,42.805,6.029,CST-1368DR,4270,4745,11794,01.123,552
2023-07-03T09:40:46,42.805,6.029,CST-1368DR,4270,4746,11797,01.122,552
2023-07-03T09:43:48,42.805,6.029,CST-1368DR,4270,4746,11797,01.122,552
2023-07-03T09:46:49,42.805,6.029,CST-1368DR,4270,4746,11796,01.122,552
2023-07-03T09:49:51,42.805,6.029,CST-1368DR,4270,4746,11796,01.122,552
2023-07-03T09:52:53,42.805,6.029,CST-1368DR,4270,4745,11795,01.122,552
2023-07-03T09:55:54,42.805,6.029,CST-1368DR,4269,4747,11801,01.120,552
2023-07-03T09:58:56,42.805,6.029,CST-1368DR,4269,4747,11801,01.120,552
2023-07-03T10:01:57,42.805,6.029,CST-1368DR,4269,4744,11795,01.122,552
2023-07-03T10:04:59,42.805,6.029,CST-1368DR,4270,4744,11793,01.123,552
2023-07-03T10:08:00,42.805,6.029,CST-1368DR,4270,4745,11794,01.123,552
2023-07-03T10:11:02,42.805,6.029,CST-1368DR,4270,4747,11799,01.121,552
2023-07-03T10:14:04,42.805,6.029,CST-1368DR,4269,4746,11799,01.121,552
2023-07-03T10:17:05,42.805,6.029,CST-1368DR,4269,4717,11727,01.146,552
2023-07-03T10:20:07,42.805,6.029,CST-1368DR,4270,4744,11792,01.123,552
2023-07-03T10:23:08,42.805,6.029,CST-1368DR,4270,4743,11790,01.124,552
2023-07-03T10:26:10,42.805,6.029,CST-1368DR,4270,4746,11796,01.122,552
2023-07-03T10:29:11,42.805,6.029,CST-1368DR,4269,4744,11795,01.122,552
2023-07-03T10:32:13,42.805,6.029,CST-1368DR,4270,4743,11788,01.125,552
2023-07-03T10:35:14,42.805,6.029,CST-1368DR,4270,4746,11796,01.122,552
2023-07-03T10:38:16,42.805,6.029,CST-1368DR,4270,4745,11794,01.123,552
2023-07-03T10:41:17,42.805,6.029,CST-1368DR,4270,4745,11795,01.122,552
2023-07-03T10:44:19,42.805,6.029,CST-1368DR,4269,4745,11797,01.122,552
2023-07-03T10:47:21,42.805,6.029,CST-1368DR,4270,4744,11792,01.123,552
2023-07-03T10:50:22,42.805,6.029,CST-1368DR,4269,4744,11795,01.122,552
2023-07-03T10:53:24,42.805,6.029,CST-1368DR,4269,4744,11794,01.123,552
2023-07-03T10:56:25,42.805,6.029,CST-1368DR,4270,4744,11793,01.123,552
2023-07-03T10:59:27,42.805,6.029,CST-1368DR,4270,4744,11792,01.123,552
2023-07-03T11:02:28,42.805,6.029,CST-1368DR,4269,4743,11791,01.124,552
2023-07-03T11:05:30,42.805,6.029,CST-1368DR,4269,4742,11790,01.124,552
2023-07-03T11:08:32,42.805,6.029,CST-1368DR,4269,4744,11794,01.123,552
2023-07-03T11:11:33,42.805,6.029,CST-1368DR,4269,4743,11793,01.123,552
2023-07-03T11:14:35,42.805,6.029,CST-1368DR,4269,4744,11795,01.122,552
2023-07-03T11:17:36,42.805,6.029,CST-1368DR,4269,4744,11793,01.123,552
2023-07-03T11:20:38,42.805,6.029,CST-1368DR,4270,4743,11789,01.125,552
2023-07-03T11:23:40,42.805,6.029,CST-1368DR,4269,4744,11793,01.123,552
2023-07-03T11:26:41,42.805,6.029,CST-1368DR,4269,4742,11789,01.125,552
2023-07-03T11:29:43,42.805,6.029,CST-1368DR,4269,4743,11791,01.124,552
2023-07-03T11:32:44,42.805,6.029,CST-1368DR,4269,4746,11798,01.121,552
2023-07-03T11:35:46,42.805,6.029,CST-1368DR,4269,4745,11797,01.122,552
2023-07-03T11:38:47,42.805,6.029,CST-1368DR,4269,4743,11791,01.124,552
2023-07-03T11:41:49,42.805,6.029,CST-1368DR,4269,4744,11795,01.122,552
2023-07-03T11:44:51,42.805,6.029,CST-1368DR,4269,4744,11794,01.123,552
2023-07-03T11:47:52,42.805,6.029,CST-1368DR,4269,4742,11790,01.124,552
2023-07-03T11:50:54,42.805,6.029,CST-1368DR,4269,4743,11793,01.123,552
2023-07-03T11:53:55,42.805,6.029,CST-1368DR,4269,4744,11794,01.123,552
2023-07-03T11:56:57,42.805,6.029,CST-1368DR,4269,4744,11794,01.123,552
2023-07-03T11:59:58,42.805,6.029,CST-1368DR,4269,4742,11790,01.124,552
2023-07-03T12:03:00,42.805,6.029,CST-1368DR,4269,4744,11795,01.122,552
2023-07-03T12:06:02,42.805,6.029,CST-1368DR,4269,4744,11793,01.123,552
2023-07-03T12:09:03,42.805,6.029,CST-1368DR,4269,4743,11791,01.124,552
2023-07-03T12:12:05,42.805,6.029,CST-1368DR,4269,4742,11789,01.125,552
2023-07-03T12:15:06,42.805,6.029,CST-1368DR,4269,4743,11792,01.123,552
2023-07-03T12:18:08,42.805,6.029,CST-1368DR,4269,4744,11793,01.123,552
2023-07-03T12:21:10,42.805,6.029,CST-1368DR,4269,4743,11791,01.124,552
2023-07-03T12:24:11,42.805,6.029,CST-1368DR,4269,4743,11791,01.124,552
2023-07-03T12:27:13,42.805,6.029,CST-1368DR,4269,4743,11791,01.124,552
2023-07-03T12:30:15,42.805,6.029,CST-1368DR,4269,4745,11798,01.121,552
2023-07-03T12:33:17,42.805,6.029,CST-1368DR,4269,4746,11798,01.121,552
2023-07-03T12:36:18,42.805,6.029,CST-1368DR,4269,4746,11798,01.121,552
2023-07-03T12:39:20,42.805,6.029,CST-1368DR,4270,4745,11794,01.123,552
2023-07-03T12:42:22,42.805,6.029,CST-1368DR,4269,4743,11791,01.124,552
2023-07-03T12:45:23,42.805,6.029,CST-1368DR,4269,4742,11790,01.124,552
2023-07-03T12:48:25,42.805,6.029,CST-1368DR,4269,4744,11794,01.123,552
2023-07-03T12:51:26,42.805,6.029,CST-1368DR,4269,4744,11794,01.123,552
2023-07-03T12:54:28,42.805,6.029,CST-1368DR,4269,4744,11794,01.123,552
2023-07-03T12:57:29,42.805,6.029,CST-1368DR,4269,4742,11790,01.124,552
2023-07-03T13:00:31,42.805,6.029,CST-1368DR,4269,4742,11789,01.125,552
2023-07-03T13:03:33,42.805,6.029,CST-1368DR,4269,4743,11791,01.124,552
2023-07-03T13:06:34,42.805,6.029,CST-1368DR,4269,4743,11791,01.124,552
2023-07-03T13:09:36,42.805,6.029,CST-1368DR,4269,4744,11795,01.122,552
2023-07-03T13:12:37,42.805,6.029,CST-1368DR,4269,4744,11795,01.122,552
2023-07-03T13:15:39,42.805,6.029,CST-1368DR,4269,4744,11795,01.122,552
2023-07-03T13:18:41,42.805,6.029,CST-1368DR,4269,4738,11780,01.128,552
2023-07-03T13:21:42,42.805,6.029,CST-1368DR,4269,4737,11776,01.129,552
2023-07-03T13:24:44,42.805,6.029,CST-1368DR,4269,4737,11778,01.128,552
2023-07-03T13:27:45,42.805,6.029,CST-1368DR,4269,4736,11773,01.130,552
2023-07-03T13:30:47,42.805,6.029,CST-1368DR,4269,4736,11775,01.129,552
2023-07-03T13:33:48,42.805,6.029,CST-1368DR,4269,4738,11780,01.128,552
2023-07-03T13:36:50,42.805,6.029,CST-1368DR,4269,4736,11775,01.129,552
2023-07-03T13:39:52,42.805,6.029,CST-1368DR,4269,4738,11780,01.128,552
2023-07-03T13:42:53,42.805,6.029,CST-1368DR,4269,4737,11776,01.129,552
2023-07-03T13:45:55,42.805,6.029,CST-1368DR,4269,4735,11773,01.130,552
2023-07-03T13:48:56,42.805,6.029,CST-1368DR,4269,4736,11775,01.129,552
2023-07-03T13:51:58,42.805,6.029,CST-1368DR,4269,4737,11778,01.128,552
2023-07-03T13:54:59,42.805,6.029,CST-1368DR,4269,4739,11782,01.127,552
2023-07-03T13:58:01,42.805,6.029,CST-1368DR,4269,4738,11778,01.128,552
2023-07-03T14:01:03,42.805,6.029,CST-1368DR,4269,4737,11777,01.129,552
2023-07-03T14:04:04,42.805,6.029,CST-1368DR,4269,4737,11778,01.128,552
2023-07-03T14:07:06,42.805,6.029,CST-1368DR,4269,4739,11781,01.127,552
2023-07-03T14:10:07,42.805,6.029,CST-1368DR,4269,4739,11782,01.127,552
2023-07-03T14:13:09,42.805,6.029,CST-1368DR,4269,4737,11777,01.129,552
2023-07-03T14:16:11,42.805,6.029,CST-1368DR,4269,4738,11778,01.128,552
2023-07-03T14:19:12,42.805,6.029,CST-1368DR,4269,4739,11782,01.127,552
2023-07-03T14:22:14,42.805,6.029,CST-1368DR,4269,4738,11780,01.128,552
2023-07-03T14:25:15,42.805,6.029,CST-1368DR,4269,4736,11774,01.130,552
2023-07-03T14:28:17,42.805,6.029,CST-1368DR,4269,4737,11776,01.129,552
2023-07-03T14:31:18,42.805,6.029,CST-1368DR,4269,4737,11777,01.129,552
2023-07-03T14:34:20,42.805,6.029,CST-1368DR,4269,4737,11777,01.129,552
2023-07-03T14:37:22,42.805,6.029,CST-1368DR,4269,4737,11777,01.129,552
2023-07-03T14:40:23,42.805,6.029,CST-1368DR,4269,4737,11777,01.129,552
2023-07-03T14:43:25,42.805,6.029,CST-1368DR,4269,4736,11773,01.130,552
2023-07-03T14:46:26,42.805,6.029,CST-1368DR,4269,4737,11777,01.129,552
2023-07-03T14:49:28,42.805,6.029,CST-1368DR,4269,4738,11778,01.128,552
2023-07-03T14:52:29,42.805,6.029,CST-1368DR,4269,4736,11775,01.129,552
2023-07-03T14:55:31,42.805,6.029,CST-1368DR,4269,4739,11782,01.127,552
2023-07-03T14:58:33,42.805,6.029,CST-1368DR,4269,4737,11777,01.129,552
2023-07-03T15:01:34,42.805,6.029,CST-1368DR,4269,4737,11777,01.129,552
2023-07-03T15:04:36,42.805,6.029,CST-1368DR,4269,4736,11773,01.130,552
2023-07-03T15:07:37,42.805,6.029,CST-1368DR,4269,4737,11776,01.129,552
2023-07-03T15:10:39,42.805,6.029,CST-1368DR,4269,4738,11778,01.128,552
2023-07-03T15:13:41,42.805,6.029,CST-1368DR,4269,4738,11780,01.128,552
2023-07-03T15:16:42,42.805,6.029,CST-1368DR,4269,4737,11777,01.129,552
2023-07-03T15:19:44,42.805,6.029,CST-1368DR,4269,4736,11773,01.130,552
2023-07-03T15:22:45,42.805,6.029,CST-1368DR,4269,4735,11772,01.130,552
2023-07-03T15:25:47,42.805,6.029,CST-1368DR,4269,4737,11776,01.129,552
2023-07-03T15:28:48,42.805,6.029,CST-1368DR,4269,4736,11775,01.129,552
2023-07-03T15:31:50,42.805,6.029,CST-1368DR,4269,4736,11774,01.130,552
2023-07-03T15:34:52,42.805,6.029,CST-1368DR,4269,4736,11775,01.129,552
2023-07-03T15:37:53,42.805,6.029,CST-1368DR,4269,4736,11775,01.129,552
2023-07-03T15:40:55,42.805,6.029,CST-1368DR,4269,4736,11775,01.129,552
2023-07-03T15:43:56,42.805,6.029,CST-1368DR,4269,4736,11775,01.129,552
2023-07-03T15:46:58,42.805,6.029,CST-1368DR,4269,4739,11782,01.127,552
2023-07-03T15:49:59,42.805,6.029,CST-1368DR,4269,4734,11768,01.132,552
2023-07-03T15:53:01,42.805,6.029,CST-1368DR,4269,4736,11775,01.129,552
2023-07-03T15:56:03,42.805,6.029,CST-1368DR,4269,4736,11774,01.130,552
2023-07-03T15:59:04,42.805,6.029,CST-1368DR,4269,4735,11772,01.130,552
2023-07-03T16:02:06,42.805,6.029,CST-1368DR,4269,4737,11776,01.129,552
2023-07-03T16:05:07,42.805,6.029,CST-1368DR,4269,4736,11774,01.130,552
2023-07-03T16:08:09,42.805,6.029,CST-1368DR,4269,4734,11770,01.131,552
2023-07-03T16:11:11,42.805,6.029,CST-1368DR,4269,4734,11768,01.132,552
2023-07-03T16:14:12,42.805,6.029,CST-1368DR,4269,4735,11772,01.130,552
2023-07-03T16:17:14,42.805,6.029,CST-1368DR,4269,4736,11773,01.130,552
2023-07-03T16:20:15,42.805,6.029,CST-1368DR,4269,4736,11775,01.129,552
2023-07-03T16:23:17,42.805,6.029,CST-1368DR,4269,4736,11775,01.129,552
2023-07-03T16:26:18,42.805,6.029,CST-1368DR,4269,4736,11775,01.129,552
2023-07-03T16:29:20,42.805,6.029,CST-1368DR,4269,4736,11774,01.130,552
2023-07-03T16:32:22,42.805,6.029,CST-1368DR,4269,4735,11772,01.130,552
2023-07-03T16:35:24,42.805,6.029,CST-1368DR,4269,4735,11773,01.130,552
2023-07-03T16:38:25,42.805,6.029,CST-1368DR,4269,4737,11777,01.129,552